Theta_e
319 319 319 318 318 318 317 317 317 317 317 316 316 316 316 316 317 317 317 317 316 317 317 318 321 319 311 300 304 330 337 335 330 319 307 304 303 303 305 309 313 311 314 322 330 329 329
319 318 318 318 318 317 317 317 317 316 316 316 316 316 316 316 316 316 316 316 316 316 317 318 321 320 303 291 311 333 331 329 315 308 306 304 304 306 305 308 310 314 314 316 328 327 331
319 318 318 318 317 317 317 316 315 315 315 315 315 315 315 316 316 316 316 315 315 316 316 318 322 317 305 299 325 328 327 321 314 307 304 305 308 306 310 310 316 314 308 313 323 326 326
318 318 318 317 317 316 316 315 316 316 315 315 315 315 315 315 315 315 314 314 315 316 317 319 324 312 298 313 322 325 319 314 315 306 305 306 309 307 308 313 309 302 300 294 317 326 329
318 317 317 317 317 316 315 315 315 315 315 315 315 315 315 315 315 314 312 313 317 319 319 323 313 305 305 324 314 319 319 315 309 304 306 313 307 303 305 302 298 299 295 294 313 327 327
317 317 317 317 316 316 316 316 316 316 316 316 315 315 315 315 315 312 311 313 322 321 321 322 319 302 305 304 306 311 320 317 312 307 306 304 302 299 300 298 294 295 294 294 297 318 323
318 317 317 316 316 316 316 316 316 315 315 316 315 315 315 314 313 312 307 303 297 296 310 301 306 304 307 311 305 304 310 311 310 306 297 300 297 295 300 302 301 299 297 295 299 314 319
318 317 316 315 315 316 316 315 316 315 315 315 315 315 314 314 313 311 304 300 300 300 294 303 309 310 312 307 300 302 309 306 305 298 301 299 295 303 306 305 302 299 297 296 299 304 303
318 317 316 315 315 314 315 315 315 315 315 315 315 314 313 312 311 305 300 301 305 300 291 297 300 301 299 305 299 300 304 304 304 300 300 298 303 308 306 302 301 296 295 295 297 301 317
318 317 315 314 314 314 314 315 315 315 315 314 314 313 311 310 303 301 303 306 305 299 288 293 294 300 299 299 298 307 307 305 303 301 302 301 305 306 301 301 302 293 302 301 299 293 289
317 317 315 314 314 313 314 314 315 315 314 314 313 312 310 309 300 301 305 304 302 299 281 297 295 300 295 294 299 299 304 302 298 302 301 299 300 300 299 300 303 300 302 300 298 292 289
317 316 315 314 313 314 314 314 314 314 314 314 313 311 310 304 299 303 305 301 299 287 283 293 296 292 293 293 296 300 299 300 300 296 296 296 299 299 299 302 304 303 297 294 290 288 285
317 316 315 314 314 314 314 314 315 314 314 313 311 309 307 307 300 303 301 298 288 283 295 293 292 294 290 290 294 295 294 292 289 286 285 292 293 295 297 293 296 296 290 284 284 284 284
317 316 315 314 315 315 315 315 315 314 313 312 309 306 306 307 303 303 299 293 284 291 290 295 295 293 291 292 292 292 291 289 293 289 285 284 285 292 297 292 289 291 290 286 281 281 285
317 316 315 315 315 314 315 315 314 314 313 310 307 303 302 305 308 301 296 285 284 288 294 294 293 290 290 293 292 291 288 288 291 290 285 284 286 295 296 296 293 290 286 288 285 283 286
317 315 315 314 315 315 315 315 314 314 312 309 303 302 301 304 304 298 292 288 288 294 295 294 290 292 287 289 289 288 288 291 292 293 289 287 283 289 294 296 295 291 291 287 286 282 281
317 315 315 315 315 315 315 315 314 313 311 309 302 297 302 301 301 296 287 287 292 296 296 292 290 289 288 289 288 286 287 291 295 294 291 286 285 287 290 288 286 288 286 286 286 285 283
316 315 315 315 314 315 315 315 314 312 309 304 299 293 304 301 293 287 287 290 296 294 295 293 292 291 289 289 287 286 287 290 295 292 287 288 283 281 283 290 292 290 286 284 285 283 283
316 315 315 315 314 315 315 315 313 311 309 300 297 295 302 300 288 286 290 292 294 293 292 292 291 291 289 286 286 289 291 296 297 292 285 287 280 277 281 285 288 287 289 284 283 282 281
316 315 314 314 315 315 315 315 313 311 309 302 295 291 295 294 289 289 287 288 290 296 293 293 292 291 288 286 287 285 288 294 295 298 303 292 280 278 278 280 284 285 288 288 284 282 282
315 313 314 314 315 315 315 315 313 311 309 300 294 291 291 288 290 289 289 290 291 290 293 292 291 291 287 283 285 285 288 289 293 296 291 287 281 281 282 286 287 287 287 287 285 285 284
316 314 314 314 314 315 316 316 314 312 309 301 297 294 291 288 289 288 289 286 290 290 290 288 289 291 289 285 285 284 286 285 285 289 286 286 284 282 281 287 286 287 291 291 293 294 292
315 314 313 314 314 315 316 316 315 312 308 301 300 298 294 291 288 286 286 288 291 291 293 293 291 288 288 289 291 290 289 287 287 286 283 283 282 279 276 284 283 280 286 293 293 294 294
314 313 313 313 314 314 316 316 316 313 308 304 301 298 292 288 290 290 292 293 292 292 290 293 291 288 291 294 293 292 290 289 290 287 285 283 281 279 277 278 274 281 294 297 294 295 296
314 313 312 313 314 314 315 317 317 315 312 305 302 300 293 289 292 293 293 293 292 292 291 292 294 293 294 292 286 284 284 285 288 287 287 284 283 279 278 276 280 286 291 292 289 291 296
313 312 312 312 313 314 314 316 317 315 312 305 302 303 297 293 292 298 293 292 289 287 290 293 295 293 293 287 285 279 279 281 282 284 285 286 285 283 278 278 277 284 292 295 295 285 295
312 312 312 312 313 313 314 315 316 316 314 305 304 303 300 294 295 295 292 291 291 289 289 290 292 292 291 284 278 277 277 282 275 279 280 277 279 279 278 278 283 290 293 295 284 284 295
311 311 311 312 312 313 313 314 315 315 315 306 305 304 302 296 297 299 299 294 292 291 289 291 291 290 287 283 282 278 277 283 274 278 280 279 277 276 279 281 279 293 292 288 289 292 293
310 311 311 311 311 312 313 314 315 315 315 308 303 304 305 301 299 303 303 302 303 300 294 290 290 289 289 285 283 281 278 281 279 275 283 278 282 279 281 282 289 291 289 292 291 289 290
Wind_Speed
16 16 16 16 16 16 17 18 19 19 20 21 20 20 18 20 19 19 18 17 17 16 13 10 8 1 1 1 8 4 17 13 6 6 6 6 7 5 5 4 4 3 5 5 8 15 10
15 15 15 16 17 18 19 19 20 20 19 20 20 20 19 18 19 19 19 17 17 16 13 9 5 4 1 2 1 9 11 9 6 6 5 5 8 5 4 2 4 4 6 5 8 9 10
14 15 16 17 18 19 20 20 21 20 20 20 20 20 21 19 19 19 20 19 18 16 12 8 4 3 1 8 1 7 9 5 4 6 6 3 4 3 2 1 2 2 3 1 3 9 6
14 15 16 16 17 18 19 20 20 20 21 20 20 21 21 21 21 20 21 21 19 17 11 8 6 2 7 2 5 6 3 4 4 2 3 5 3 2 1 4 4 4 4 2 2 6 2
15 15 16 17 18 19 20 20 20 20 20 20 20 21 21 22 21 21 21 20 17 3 7 9 4 2 6 5 4 8 6 7 6 3 4 2 2 1 1 3 5 6 3 3 2 7 4
16 17 18 18 18 19 19 20 20 20 19 19 19 19 20 21 19 20 19 12 6 11 5 5 3 1 3 2 3 7 4 9 5 6 2 4 3 3 3 4 4 2 4 2 3 7 4
18 20 20 21 22 20 20 20 21 21 21 20 20 20 21 22 20 17 8 4 4 3 2 6 3 3 4 7 2 4 7 6 5 5 4 2 5 5 7 6 4 4 4 0 2 4 4
18 19 20 21 21 20 21 22 21 22 22 21 21 21 21 22 21 16 4 6 4 3 7 6 4 5 5 2 2 2 8 6 5 4 4 5 4 8 5 7 5 2 3 2 3 1 7
19 20 20 19 20 21 21 22 22 22 22 21 20 20 21 21 24 0 1 2 2 4 2 7 5 4 4 7 4 5 6 4 6 5 5 7 5 6 5 4 4 2 4 3 4 3 2
18 18 20 22 21 20 20 22 22 23 23 22 20 20 20 24 2 4 3 2 6 5 5 3 3 5 4 3 2 3 4 6 3 8 8 4 1 5 3 2 6 2 8 5 2 2 2
18 19 21 22 23 23 21 21 22 23 23 23 22 18 16 8 3 0 4 7 4 5 5 0 2 0 1 4 5 4 3 3 7 6 6 6 5 4 3 7 6 8 6 7 5 3 2
19 19 21 21 22 23 23 22 22 23 24 23 21 18 12 2 0 6 7 6 4 7 3 5 4 1 4 4 2 3 8 9 3 5 4 0 1 3 4 3 8 4 6 8 6 4 3
19 20 21 21 21 22 22 23 23 24 26 26 21 13 3 2 2 5 4 5 6 6 5 8 4 7 2 6 8 6 6 10 5 5 5 6 4 6 4 1 4 6 7 3 4 3 6
19 20 20 23 22 22 22 23 23 25 26 27 22 6 6 4 3 6 4 7 10 3 4 4 4 2 6 4 7 8 4 7 6 6 5 3 4 7 10 3 1 2 6 7 6 6 5
18 20 20 20 20 21 23 24 24 25 26 27 15 2 1 3 2 2 7 8 2 3 5 7 3 7 8 6 6 7 6 3 4 5 5 4 2 6 4 5 3 1 5 2 8 3 4
17 18 19 21 19 20 21 24 24 25 25 22 3 3 4 6 4 5 8 4 2 3 6 3 4 4 5 7 5 6 5 3 5 7 2 1 4 2 6 6 7 8 1 4 4 5 3
16 19 19 19 19 20 21 22 23 25 24 15 4 5 4 5 3 8 5 2 3 6 3 6 4 4 3 4 5 4 3 3 5 4 7 2 4 5 6 9 5 7 6 5 5 3 6
16 17 19 19 20 20 21 21 22 23 23 6 3 4 4 2 7 2 3 4 3 6 6 6 4 5 4 5 6 5 4 5 8 2 4 3 5 5 1 4 3 5 2 3 5 3 2
14 16 18 19 19 20 21 22 21 21 14 1 4 2 4 4 5 3 4 5 5 9 7 6 7 6 5 4 7 4 4 5 9 6 3 1 4 4 4 7 5 6 5 3 4 3 1
13 15 16 18 18 18 21 22 21 21 9 4 4 4 6 7 2 5 4 4 3 5 4 5 4 4 5 9 8 4 4 6 7 5 12 9 4 4 7 3 3 2 3 3 4 4 4
13 14 16 17 17 19 20 21 20 20 6 3 5 0 3 3 6 4 4 2 3 5 4 8 7 6 3 4 6 5 3 5 6 10 5 6 4 3 2 1 2 3 4 4 0 4 3
11 12 15 17 16 17 19 21 21 21 4 6 5 3 4 2 3 4 6 3 2 2 4 4 6 4 5 5 4 4 2 1 1 6 5 4 3 2 3 3 4 2 5 3 3 4 5
10 10 13 15 15 15 16 19 20 22 6 4 1 2 5 5 3 4 1 1 2 0 3 4 5 3 5 3 3 1 2 4 3 5 3 4 5 3 2 3 2 3 3 1 4 4 1
9 9 12 14 14 14 15 16 17 18 9 3 2 4 5 2 2 2 2 1 2 1 2 0 3 3 2 7 6 6 9 8 8 7 1 6 5 3 3 2 3 5 2 2 7 6 5
9 8 10 12 13 12 12 14 15 15 14 4 1 3 4 1 1 0 3 4 2 3 1 1 1 0 4 6 5 4 5 4 5 6 6 3 5 4 4 3 3 1 2 2 2 3 4
6 7 9 9 11 10 11 12 13 13 13 3 2 2 3 7 5 2 3 2 3 1 3 2 3 2 7 4 4 3 4 3 2 1 4 5 6 6 2 4 7 4 4 3 3 3 2
5 7 8 9 10 10 9 11 12 12 12 2 1 2 4 3 4 5 4 5 5 3 2 3 3 3 4 3 3 3 3 3 2 6 4 3 4 5 3 2 6 4 4 3 5 4 4
5 6 7 8 8 9 8 9 10 12 12 3 1 2 3 2 5 6 7 6 3 3 4 4 4 3 3 4 4 4 3 4 3 4 4 6 6 4 3 2 8 5 3 6 3 3 4
5 5 6 6 7 7 8 8 9 10 11 3 2 2 1 3 5 2 5 4 8 10 7 1 4 5 5 5 1 4 2 3 5 3 1 2 7 6 8 6 3 3 4 5 6 5 4
Wind_Direction
356 355 351 348 345 344 342 342 341 340 339 339 336 333 336 332 328 325 321 319 316 314 314 314 319 349 347 295 252 105 145 148 122 130 152 132 138 134 167 201 150 204 277 210 153 163 162
354 351 349 346 344 343 343 343 342 341 340 337 333 331 331 329 326 322 319 316 310 306 305 304 309 136 21 301 112 141 132 123 137 129 157 146 171 177 150 209 159 216 229 247 166 172 156
351 348 348 346 346 344 343 343 341 339 339 335 332 330 327 326 324 322 319 314 306 297 292 282 239 194 80 229 52 137 123 148 150 143 140 204 126 165 135 229 263 251 302 355 144 163 175
350 345 344 343 343 343 341 340 339 337 335 334 332 331 327 324 323 324 320 314 302 286 265 238 181 183 245 253 127 119 141 84 93 97 118 169 172 94 187 291 20 35 63 44 341 153 220
347 341 340 341 342 341 339 338 338 335 333 333 332 329 325 322 323 324 323 321 305 247 183 172 125 165 271 110 172 187 162 141 112 88 310 203 86 160 39 69 17 18 119 76 100 216 149
342 340 341 341 341 341 336 335 334 331 331 330 326 322 321 320 323 326 324 318 71 98 127 182 250 45 262 205 230 139 155 145 130 107 122 116 75 96 51 77 190 176 90 3 121 213 233
344 344 344 342 342 340 336 333 330 331 331 328 324 323 323 322 326 326 323 94 24 18 196 201 186 260 284 289 257 181 151 138 103 91 125 192 103 183 194 190 164 119 104 2 290 193 183
343 343 341 341 339 336 335 334 328 327 326 325 323 324 324 324 325 327 146 99 128 214 314 235 248 274 269 235 11 156 118 125 129 153 123 58 193 211 177 166 143 120 102 287 290 282 189
342 341 339 340 340 337 334 328 327 323 320 320 322 325 329 327 321 204 266 164 12 141 143 296 201 200 212 140 190 211 127 135 139 131 172 141 207 156 185 128 125 114 159 198 211 21 19
339 338 340 340 339 336 331 328 325 321 319 319 322 330 333 330 347 323 284 342 316 185 57 292 252 270 156 188 63 175 161 146 118 172 156 174 134 168 135 177 137 183 208 184 220 90 228
336 338 342 341 339 337 329 328 325 321 318 318 325 330 331 332 284 109 314 340 316 58 68 341 208 116 65 133 152 26 35 48 153 157 112 239 157 160 174 218 155 216 157 176 177 166 83
336 336 341 342 340 334 330 328 326 324 319 320 325 326 326 112 53 253 316 321 54 46 62 340 336 84 82 28 42 58 30 32 57 85 48 190 24 84 219 251 183 108 75 42 50 88 48
334 335 340 341 341 332 331 329 328 325 324 325 323 323 246 149 257 314 324 45 43 76 331 343 341 354 87 27 40 35 46 43 49 77 33 360 9 325 39 39 59 88 80 25 34 45 200
334 335 338 342 333 334 333 330 329 328 333 329 324 2 198 228 285 329 52 53 64 311 312 327 354 353 71 16 13 16 52 40 22 41 77 108 11 5 331 37 119 84 149 151 167 172 192
334 336 335 337 335 337 333 331 331 333 339 333 316 8 243 273 181 156 71 55 183 314 298 327 329 61 9 13 101 73 41 50 23 4 113 122 41 323 39 13 31 215 65 187 105 4 82
332 335 336 340 338 337 336 333 333 337 342 339 31 13 312 327 144 62 69 104 28 308 323 26 77 31 53 350 72 71 25 340 343 32 161 148 92 38 305 12 25 88 13 65 9 129 155
332 336 337 338 338 337 338 336 334 338 342 334 29 41 276 7 57 47 92 95 32 329 51 44 30 56 66 35 61 63 21 339 10 359 57 75 77 317 44 21 306 3 9 23 110 93 148
332 336 337 337 338 339 337 338 338 343 344 52 82 40 316 25 51 27 55 333 23 350 5 28 83 55 52 38 52 75 90 355 338 342 49 1 113 66 95 299 337 42 58 112 120 219 54
330 336 337 339 338 340 337 338 341 348 0 34 84 267 323 63 90 20 360 21 57 13 22 25 23 35 46 45 92 54 69 337 18 51 86 162 23 85 13 334 4 44 334 78 100 88 43
328 335 340 339 339 342 338 337 345 352 16 76 74 30 335 42 37 107 89 11 67 27 57 56 14 62 63 25 13 86 53 26 3 36 57 79 63 130 166 154 194 348 310 352 97 94 162
326 335 340 338 343 342 341 338 347 355 22 62 33 202 192 348 5 47 66 16 46 14 29 27 20 28 91 67 41 43 34 9 8 4 44 88 93 76 80 110 206 240 276 293 316 137 111
319 334 340 336 348 344 343 342 348 357 18 74 105 113 15 72 354 39 5 20 65 10 41 13 98 25 64 100 161 163 121 51 87 359 45 15 143 113 61 346 343 29 349 78 46 36 92
316 334 340 339 343 349 348 344 351 358 9 83 341 53 100 312 43 70 264 152 38 75 61 102 157 91 61 157 173 233 147 92 115 135 101 70 124 88 184 347 59 347 312 356 105 59 57
315 331 345 339 340 351 353 350 354 6 33 112 168 107 82 305 98 158 146 118 124 59 140 354 144 115 208 92 105 57 60 82 73 34 67 126 98 90 159 43 200 241 2 334 106 78 44
312 334 347 337 337 347 359 355 353 3 13 79 98 97 114 88 270 70 145 128 71 12 86 248 307 228 120 63 66 45 354 24 11 40 24 71 121 87 130 179 278 265 262 85 125 119 32
313 331 331 337 331 343 357 3 355 2 7 79 78 127 108 120 248 226 152 126 163 173 347 270 31 97 67 77 75 129 205 190 200 24 54 66 69 108 148 163 212 211 156 109 147 263 170
313 325 331 333 328 339 355 4 2 359 7 80 51 81 91 118 243 141 185 175 133 115 162 302 336 61 58 84 86 145 231 163 174 175 175 38 25 137 169 204 292 207 157 160 133 218 150
294 319 319 322 326 331 348 2 3 358 3 45 238 35 107 161 265 187 171 139 119 126 152 222 53 345 53 86 130 201 137 215 88 218 185 166 141 177 120 150 257 162 112 173 176 132 147
275 304 304 315 321 333 338 360 5 355 0 34 59 343 35 140 238 275 235 204 181 181 141 191 186 168 173 96 153 109 125 149 165 238 170 218 179 181 175 211 252 193 150 157 161 160 184